Location: Poughquag
(41.6090°N, 73.6820°W)
Time: 16:35:04
(UTC-04:00)

Vanguard 2 - Pass Details

Date: 02 June 2020
Orbit: 554 x 2937 km, 32.9° (Epoch: 30 October)

Event Time Altitude Azimuth Distance (km) Brightness Sun altitude
Rises 20:31:43 0° 253° (WSW) 6,110 12.8 -2.1°
Reaches altitude 10° 20:36:25 10° 249° (WSW) 4,761 12.1 -2.8°
Maximum altitude 20:48:08 49° 180° (S) 1,883 9.3 -4.6°
Drops below altitude 10° 20:55:14 10° 107° (ESE) 2,944 9.9 -5.7°
Enters shadow 20:56:33 - 104° (ESE) 3,355 10.2 -5.9°
